This demonstration page uses our WeatherBlox Daily Observations layout. Learn more.

Left ArrowRight Arrow

Hourly Observations for February 22, 2019

Temp ( °F °C ) Dew Point ( °F °C ) Humidity (%) Winds ( mph kmh ) Pressure ( in mb ) Visibility ( mi km ) Precip ( " mm )
12:52 am 00:52 Mostly Cloudy 24 -4.4 15 -9.4 68 68 N 6 9 30.33 1027 10 16 0.00 0.00
1:52 am 01:52 Cloudy 26 -3.3 16 -8.9 66 66 ESE 9 15 30.33 1027 10 16 0.00 0.00
2:52 am 02:52 Cloudy 26 -3.3 15 -9.4 63 63 E 5 7 30.33 1027 10 16 0.00 0.00
3:52 am 03:52 Cloudy 24 -4.4 14 -10 65 65 E 5 7 30.32 1027 9 14 0.00 0.00
4:52 am 04:52 Mostly Clear 22 -5.6 12 -11.1 66 66 Calm 30.32 1027 10 16 0.00 0.00
5:52 am 05:52 Mostly Clear 20 -6.7 11 -11.7 68 68 VRB 5 7 30.33 1027 10 16 0.00 0.00
6:52 am 06:52 Mostly Clear 22 -5.6 10 -12.2 60 60 SE 5 7 30.33 1027 10 16 0.00 0.00
7:52 am 07:52 Mostly Sunny 21 -6.1 9 -12.8 59 59 E 9 15 30.34 1028 8 13 0.00 0.00
8:52 am 08:52 Partly Cloudy 23 -5 12 -11.1 63 63 E 10 17 30.34 1027 7 11 0.00 0.00
9:52 am 09:52 Partly Cloudy 26 -3.3 14 -10 60 60 ESE 13 20 30.32 1027 8 13 0.00 0.00
10:52 am 10:52 Mostly Cloudy 28 -2.2 15 -9.4 58 58 ESE 15 24 30.31 1026 9 14 0.00 0.00
11:52 am 11:52 Mostly Cloudy 30 -1.1 15 -9.4 54 54 SE 9 15 30.29 1026 10 16 0.00 0.00
12:52 pm 12:52 Mostly Cloudy 32 0 16 -8.9 52 52 ESE 13 20 30.25 1024 10 16 0.00 0.00
1:52 pm 13:52 Cloudy 32 0 16 -8.9 52 52 ESE 12 19 30.20 1023 10 16 0.00 0.00
2:52 pm 14:52 Cloudy 32 0 18 -7.8 56 56 E 9 15 30.18 1022 10 16 0.00 0.00
3:52 pm 15:52 Cloudy 32 0 19 -7.2 59 59 E 8 13 30.18 1022 10 16 0.00 0.00
4:35 pm 16:35 Cloudy 32 0 20 -6.7 61 61 E 12 19 30.16 1021 10 16 0.00 0.00
4:52 pm 16:52 Cloudy 32 0 20 -6.7 61 61 ESE 10 17 30.14 1021 10 16 0.00 0.00
5:52 pm 17:52 Cloudy 32 0 21 -6.1 64 64 E 5 7 30.14 1021 10 16 0.00 0.00
6:52 pm 18:52 Cloudy with Light Rain/Snow 32 0 22 -5.6 66 66 E 9 15 30.13 1020 10 16 0.00 0.03
7:29 pm 19:29 Cloudy with Light Freezing Rain 31 -0.6 23 -5 72 72 ESE 10 17 30.14 1020 6 10 0.00 0.03
7:52 pm 19:52 Cloudy with Light Freezing Rain 31 -0.6 23 -5 72 72 ESE 12 19 30.09 1019 7 11 0.00 0.03
8:13 pm 20:13 Cloudy 31 -0.6 24 -4.4 76 76 SE 10 17 30.11 1019 7 11 0.01 0.25
8:30 pm 20:30 Cloudy with Light Freezing Rain 32 0 24 -4.4 73 73 SE 13 20 30.09 1019 6 10 0.01 0.25
8:52 pm 20:52 Cloudy with Light Freezing Rain 32 0 25 -3.9 75 75 SE 9 15 30.08 1019 5 8 0.02 0.51
9:52 pm 21:52 Cloudy with Light Freezing Rain 32 0 27 -2.8 82 82 SSE 12 19 30.06 1018 3 5 0.01 0.25
10:08 pm 22:08 Cloudy with Light Freezing Rain 32 0 28 -2.2 85 85 SSE 7 11 30.08 1019 2 3 0.03 0.76
10:49 pm 22:49 Cloudy with Light Freezing Rain 32 0 28 -2 87 87 Calm 30.08 1019 2 3 0.05 1.27
10:52 pm 22:52 Cloudy with Light Freezing Drizzle 32 0 29 -1.7 88 88 Calm 30.06 1018 2 2 0.06 1.52
11:52 pm 23:52 Cloudy with Light Freezing Drizzle 32 0 30 -1.1 92 92 Calm 30.03 1017 1 2 0.02 0.51

Powered by AerisWeather